DW9711 Weather Reports


Display with metric or nautical units.
time (UTC)temp
F
wind
direction
speed
MPH
gust
MPH
rain 1hr
in
rain 24hr
in
rain mn
in
humidity
%
barometer
mb
20260906061537 80 321 0.0 0.0 0.00 0.00 0.00 86 1009.1
20260906061039 80 321 0.0 0.0 0.00 0.00 0.00 85 1009.2
20260906060534 81 321 0.0 0.0 0.00 0.00 0.00 85 1009.2
20260906060034 81 321 0.0 0.0 0.00 0.00 0.00 85 1009.3
20260906055533 81 321 0.0 0.0 0.00 0.00 0.00 85 1009.3
20260906055033 81 321 0.0 0.0 0.00 0.00 0.00 85 1009.3
20260906054546 81 321 0.0 0.0 0.00 0.00 0.00 84 1009.3
20260906054032 81 321 0.0 0.0 0.00 0.00 0.00 84 1009.4
20260906053531 81 321 0.0 0.0 0.00 0.00 0.00 83 1009.4
20260906053030 81 321 0.0 0.0 0.00 0.00 0.00 82 1009.5
20260906052531 81 321 0.0 0.0 0.00 0.00 0.00 82 1009.5
20260906052030 81 321 0.0 0.0 0.00 0.00 0.00 82 1009.5
20260906051529 81 321 0.0 0.0 0.00 0.00 0.00 81 1009.4
20260906051028 81 321 0.0 0.0 0.00 0.00 0.00 81 1009.6
20260906050527 81 321 0.0 0.0 0.00 0.00 0.00 81 1009.6
20260906050027 81 321 0.0 0.0 0.00 0.00 0.00 81 1009.6
20260906045527 81 321 0.0 0.0 0.00 0.00 0.00 80 1009.6
20260906045026 81 321 0.0 0.0 0.00 0.00 0.00 80 1009.6
20260906044526 81 321 0.0 0.0 0.00 0.00 0.00 80 1009.6
20260906044027 80 321 0.0 0.0 0.00 0.00 0.00 80 1009.6
20260906043526 81 321 0.0 0.0 0.00 0.00 0.00 81 1009.5
20260906043026 81 321 0.0 0.0 0.00 0.00 0.00 82 1009.6
20260906042526 81 321 0.0 0.0 0.00 0.00 0.00 82 1009.6
20260906042026 81 321 0.0 0.0 0.00 0.00 0.00 80 1009.6
20260906041528 81 321 0.0 0.0 0.00 0.00 0.00 80 1009.6
20260906041029 82 321 0.0 0.0 0.00 0.00 0.00 80 1009.6
20260906040525 82 321 0.0 0.0 0.00 0.00 0.00 81 1009.7
20260906040046 82 321 0.0 0.0 0.00 0.00 0.00 81 1009.7
20260906035525 81 321 0.0 0.0 0.00 0.00 0.00 81 1009.5
20260906035028 81 321 0.0 0.0 0.00 0.00 0.00 81 1009.5
20260906034525 81 321 0.0 0.0 0.00 0.00 0.00 81 1009.4
20260906034024 81 321 0.0 0.0 0.00 0.00 0.00 81 1009.3
20260906033524 81 321 0.0 1.0 0.00 0.00 0.00 81 1009.3
20260906033039 81 321 0.0 1.0 0.00 0.00 0.00 81 1009.4
20260906032524 81 320 0.0 0.0 0.00 0.00 0.00 80 1009.3
20260906032024 82 320 0.0 0.0 0.00 0.00 0.00 80 1009.2
20260906031525 82 320 0.0 2.0 0.00 0.00 0.00 80 1009.2
20260906031024 83 320 1.0 2.0 0.00 0.00 0.00 78 1009.3
20260906030524 83 318 0.0 0.0 0.00 0.00 0.00 80 1009.0
20260906030023 83 318 0.0 0.0 0.00 0.00 0.00 79 1009.0
20260906025523 83 318 0.0 0.0 0.00 0.00 0.00 79 1009.0
20260906025024 84 318 0.0 0.0 0.00 0.00 0.00 79 1008.9
20260906024523 84 318 0.0 0.0 0.00 0.00 0.00 78 1009.0
20260906024027 84 318 0.0 0.0 0.00 0.00 0.00 77 1009.0
20260906023526 84 318 0.0 0.0 0.00 0.00 0.00 76 1008.9
20260906023023 84 318 0.0 0.0 0.00 0.00 0.00 76 1008.9
20260906022523 84 318 0.0 0.0 0.00 0.00 0.00 75 1008.9
20260906022023 84 318 0.0 0.0 0.00 0.00 0.00 77 1008.8
20260906021523 84 318 0.0 0.0 0.00 0.00 0.00 76 1008.7
20260906021022 84 318 0.0 0.0 0.00 0.00 0.00 74 1008.7
20260906020522 85 318 0.0 0.0 0.00 0.00 0.00 75 1008.7
20260906020022 85 318 0.0 0.0 0.00 0.00 0.00 76 1008.6
20260906015521 86 318 0.0 0.0 0.00 0.00 0.00 74 1008.5
20260906015022 86 318 0.0 0.0 0.00 0.00 0.00 74 1008.5
20260906014526 87 318 0.0 0.0 0.00 0.00 0.00 75 1008.4
20260906014023 87 318 0.0 0.0 0.00 0.00 0.00 74 1008.4
20260906013521 87 318 0.0 0.0 0.00 0.00 0.00 73 1008.4
20260906013021 87 318 0.0 0.0 0.00 0.00 0.00 72 1008.4
20260906012524 88 318 0.0 0.0 0.00 0.00 0.00 71 1008.4
20260906012020 88 318 0.0 0.0 0.00 0.00 0.00 69 1008.4
20260906011521 88 318 0.0 0.0 0.00 0.00 0.00 69 1008.3
20260906011023 88 318 0.0 0.0 0.00 0.00 0.00 67 1008.3
20260906010520 88 318 0.0 0.0 0.00 0.00 0.00 67 1008.4
20260906010021 88 318 0.0 0.0 0.00 0.00 0.00 66 1008.3
20260906005519 89 318 0.0 0.0 0.00 0.00 0.00 65 1008.2
20260906005020 89 318 0.0 0.0 0.00 0.00 0.00 66 1008.2
20260906004520 90 318 0.0 0.0 0.00 0.00 0.00 67 1008.1
20260906004023 90 318 0.0 0.0 0.00 0.00 0.00 65 1008.1
20260906003519 90 318 0.0 0.0 0.00 0.00 0.00 64 1008.1
20260906003019 91 318 0.0 0.0 0.00 0.00 0.00 63 1008.1
20260906002518 91 318 0.0 0.0 0.00 0.00 0.00 62 1008.2
20260906002019 92 318 0.0 0.0 0.00 0.00 0.00 60 1008.2
20260906001518 92 318 0.0 0.0 0.00 0.00 0.00 59 1008.3
20260906001018 92 318 0.0 0.0 0.00 0.00 0.00 58 1008.3
20260906000518 92 318 0.0 0.0 0.00 0.00 0.00 57 1008.2
20260906000018 93 318 0.0 0.0 0.00 0.00 0.00 57 1008.3
20260905235517 93 318 0.0 0.0 0.00 0.00 0.00 58 1008.4
20260905235018 93 318 0.0 0.0 0.00 0.00 0.00 60 1008.4
20260905234519 93 318 0.0 0.0 0.00 0.00 0.00 55 1008.4
20260905234017 94 318 0.0 0.0 0.00 0.00 0.00 55 1008.4
20260905233517 94 318 0.0 0.0 0.00 0.00 0.00 56 1008.4
20260905233017 94 318 0.0 0.0 0.00 0.00 0.00 54 1008.4
20260905232517 95 318 0.0 0.0 0.00 0.00 0.00 54 1008.3
20260905232017 95 318 0.0 0.0 0.00 0.00 0.00 54 1008.3
20260905231520 96 318 0.0 0.0 0.00 0.00 0.00 54 1008.3
20260905231017 96 318 0.0 0.0 0.00 0.00 0.00 52 1008.4
20260905230516 97 318 0.0 1.0 0.00 0.00 0.00 51 1008.4
20260905230016 97 318 0.0 2.0 0.00 0.00 0.00 51 1008.3
20260905225515 98 319 0.0 2.0 0.00 0.00 0.00 51 1008.3
20260905225019 98 319 0.0 2.0 0.00 0.00 0.00 51 1008.2
20260905224534 99 319 0.0 2.0 0.00 0.00 0.00 49 1008.3
20260905224015 99 318 0.0 3.0 0.00 0.00 0.00 48 1008.2
20260905223515 99 318 0.0 3.0 0.00 0.00 0.00 50 1008.2
20260905223020 99 318 0.0 2.0 0.00 0.00 0.00 47 1008.2
20260905222515 99 318 0.0 4.0 0.00 0.00 0.00 48 1008.2
20260905222014 99 320 0.0 2.0 0.00 0.00 0.00 47 1008.3
20260905221514 99 321 0.0 3.0 0.00 0.00 0.00 48 1008.3
20260905221014 99 320 0.0 5.0 0.00 0.00 0.00 49 1008.3
20260905220512 100 321 1.0 5.0 0.00 0.00 0.00 46 1008.5
20260905220012 100 321 2.0 5.0 0.00 0.00 0.00 45 1008.4
20260905215514 101 278 1.0 3.0 0.00 0.00 0.00 45 1008.4
20260905215014 101 277 0.0 3.0 0.00 0.00 0.00 44 1008.4
20260905214511 100 278 0.0 2.0 0.00 0.00 0.00 45 1008.4
20260905214011 101 278 0.0 2.0 0.00 0.00 0.00 44 1008.5
20260905213511 100 278 0.0 4.0 0.00 0.00 0.00 43 1008.5
20260905213011 100 278 0.0 4.0 0.00 0.00 0.00 44 1008.5
20260905212512 100 265 0.0 2.0 0.00 0.00 0.00 45 1008.5
20260905212011 100 265 0.0 2.0 0.00 0.00 0.00 44 1008.5
20260905211528 100 265 0.0 0.0 0.00 0.00 0.00 47 1008.6
20260905211009 100 265 0.0 1.0 0.00 0.00 0.00 47 1008.7
20260905210508 100 265 0.0 2.0 0.00 0.00 0.00 44 1008.7
20260905210016 100 265 0.0 2.0 0.00 0.00 0.00 42 1008.7
20260905205507 100 265 0.0 2.0 0.00 0.00 0.00 45 1008.7
20260905205007 100 265 0.0 4.0 0.00 0.00 0.00 43 1008.7
20260905204505 100 265 0.0 4.0 0.00 0.00 0.00 45 1008.7
20260905204005 100 248 0.0 3.0 0.00 0.00 0.00 46 1008.8
20260905203504 99 248 0.0 4.0 0.00 0.00 0.00 44 1009.0
20260905203004 99 322 0.0 4.0 0.00 0.00 0.00 46 1008.9
20260905202503 99 355 0.0 3.0 0.00 0.00 0.00 46 1009.0
20260905202003 99 355 0.0 5.0 0.00 0.00 0.00 47 1009.1
20260905201503 99 335 1.0 5.0 0.00 0.00 0.00 48 1009.0
20260905201002 99 317 1.0 5.0 0.00 0.00 0.00 47 1009.2
20260905200600 99 281 1.0 5.0 0.00 0.00 0.00 44 1009.2
20260905200104 100 295 1.0 5.0 0.00 0.00 0.00 47 1009.4
20260905195600 100 9 0.0 3.0 0.00 0.00 0.00 46 1009.4
20260905195057 99 9 0.0 2.0 0.00 0.00 0.00 48 1009.6
20260905194557 99 10 0.0 2.0 0.00 0.00 0.00 45 1009.7
20260905194056 99 92 0.0 1.0 0.00 0.00 0.00 47 1009.8
20260905193555 99 98 0.0 0.0 0.00 0.00 0.00 47 1009.9
20260905193055 99 98 0.0 5.0 0.00 0.00 0.00 45 1009.9
20260905192553 99 348 2.0 5.0 0.00 0.00 0.00 47 1010.0
20260905192053 99 53 0.0 4.0 0.00 0.00 0.00 48 1010.0
20260905191557 99 23 0.0 4.0 0.00 0.00 0.00 48 1010.1
20260905191051 99 340 0.0 3.0 0.00 0.00 0.00 48 1010.2
20260905190549 98 321 0.0 0.0 0.00 0.00 0.00 47 1010.3
20260905190049 98 321 0.0 0.0 0.00 0.00 0.00 47 1010.4
20260905185548 98 322 0.0 0.0 0.00 0.00 0.00 48 1010.4
20260905185051 98 351 0.0 0.0 0.00 0.00 0.00 49 1010.5
20260905184556 97 324 0.0 0.0 0.00 0.00 0.00 51 1010.4
20260905184047 97 323 0.0 0.0 0.00 0.00 0.00 50 1010.5
20260905183546 97 337 0.0 0.0 0.00 0.00 0.00 55 1010.5
20260905183045 97 341 0.0 2.0 0.00 0.00 0.00 53 1010.6
20260905182545 98 341 0.0 4.0 0.00 0.00 0.00 52 1010.6
20260905182045 98 342 0.0 4.0 0.00 0.00 0.00 52 1010.8
20260905181543 98 315 0.0 3.0 0.00 0.00 0.00 50 1010.8
20260905181041 98 315 0.0 3.0 0.00 0.00 0.00 49 1010.8
20260905180541 98 62 0.0 2.0 0.00 0.00 0.00 50 1010.9
20260905180043 97 67 0.0 3.0 0.00 0.00 0.00 51 1010.9
20260905175538 97 9 0.0 0.0 0.00 0.00 0.00 50 1011.0
20260905175038 97 9 0.0 1.0 0.00 0.00 0.00 52 1011.0
20260905174538 96 5 0.0 4.0 0.00 0.00 0.00 50 1011.1
20260905174035 96 307 1.0 4.0 0.00 0.00 0.00 50 1011.0
20260905173535 96 292 0.0 0.0 0.00 0.00 0.00 50 1011.1
20260905173043 96 292 0.0 1.0 0.00 0.00 0.00 50 1011.1
20260905172535 96 307 0.0 1.0 0.00 0.00 0.00 51 1011.2
20260905172032 96 312 0.0 0.0 0.00 0.00 0.00 53 1011.3
20260905171531 95 310 0.0 4.0 0.00 0.00 0.00 53 1011.3
20260905171030 95 308 0.0 5.0 0.00 0.00 0.00 50 1011.3
20260905170529 95 309 2.0 5.0 0.00 0.00 0.00 49 1011.3
20260905170029 95 312 0.0 0.0 0.00 0.00 0.00 55 1011.3
20260905165527 95 312 0.0 0.0 0.00 0.00 0.00 54 1011.4
20260905165028 95 315 0.0 1.0 0.00 0.00 0.00 55 1011.4
20260905164530 95 317 0.0 3.0 0.00 0.00 0.00 54 1011.5
20260905164025 95 318 1.0 3.0 0.00 0.00 0.00 56 1011.5
20260905163528 95 277 0.0 3.0 0.00 0.00 0.00 55 1011.6
20260905163026 94 236 0.0 4.0 0.00 0.00 0.00 55 1011.7
20260905162523 94 229 0.0 4.0 0.00 0.00 0.00 56 1011.8
20260905162022 94 211 0.0 4.0 0.00 0.00 0.00 56 1011.8
20260905161521 94 211 1.0 4.0 0.00 0.00 0.00 56 1011.9
20260905161019 93 300 0.0 5.0 0.00 0.00 0.00 59 1011.9
20260905160518 93 301 1.0 5.0 0.00 0.00 0.00 61 1011.9
20260905160017 92 317 0.0 3.0 0.00 0.00 0.00 60 1012.0
20260905155517 92 317 0.0 3.0 0.00 0.00 0.00 61 1012.0
20260905155015 93 316 0.0 2.0 0.00 0.00 0.00 61 1012.0
20260905154516 92 316 0.0 3.0 0.00 0.00 0.00 62 1012.0
20260905154018 92 316 0.0 3.0 0.00 0.00 0.00 62 1012.0
20260905153514 92 316 0.0 3.0 0.00 0.00 0.00 63 1012.0
20260905153017 92 316 0.0 2.0 0.00 0.00 0.00 63 1012.1
20260905152511 91 316 0.0 4.0 0.00 0.00 0.00 66 1012.1
20260905152011 91 107 0.0 2.0 0.00 0.00 0.00 63 1012.1
20260905151517 91 119 0.0 2.0 0.00 0.00 0.00 65 1012.1
20260905151006 91 111 0.0 2.0 0.00 0.00 0.00 64 1012.1
20260905150504 91 61 0.0 0.0 0.00 0.00 0.00 69 1012.1
20260905150003 91 61 0.0 0.0 0.00 0.00 0.00 68 1012.1
20260905145502 90 61 0.0 0.0 0.00 0.00 0.00 70 1012.1
20260905145102 90 61 0.0 0.0 0.00 0.00 0.00 70 1012.1
20260905144559 89 61 0.0 0.0 0.00 0.00 0.00 69 1012.1
20260905144057 89 61 0.0 0.0 0.00 0.00 0.00 70 1012.1